Year,Month,Day,Hour,Minute,Value (Times are PST for temperature in C)
2015,07,10,00,00,19.10
2015,07,10,00,01,19.10
2015,07,10,00,02,19.10
2015,07,10,00,03,19.20
2015,07,10,00,04,19.20
2015,07,10,00,05,19.30
2015,07,10,00,06,19.30
2015,07,10,00,07,19.30
2015,07,10,00,08,19.30
2015,07,10,00,09,19.30
2015,07,10,00,10,19.30
2015,07,10,00,11,19.30
2015,07,10,00,12,19.30
2015,07,10,00,13,19.30
2015,07,10,00,14,19.20
2015,07,10,00,15,19.20
2015,07,10,00,16,19.10
2015,07,10,00,17,19.10
2015,07,10,00,18,19.10
2015,07,10,00,19,19.10
2015,07,10,00,20,19.10
2015,07,10,00,21,19.10
2015,07,10,00,22,19.00
2015,07,10,00,23,18.90
2015,07,10,00,24,18.90
2015,07,10,00,25,18.90
2015,07,10,00,26,18.90
2015,07,10,00,27,18.80
2015,07,10,00,28,18.80
2015,07,10,00,29,18.70
2015,07,10,00,30,18.70
2015,07,10,00,31,18.70
2015,07,10,00,32,18.70
2015,07,10,00,33,18.70
2015,07,10,00,34,18.70
2015,07,10,00,35,18.70
2015,07,10,00,36,18.70
2015,07,10,00,37,18.70
2015,07,10,00,38,18.70
2015,07,10,00,39,18.70
2015,07,10,00,40,18.70
2015,07,10,00,41,18.70
2015,07,10,00,42,18.70
2015,07,10,00,43,18.60
2015,07,10,00,44,18.60
2015,07,10,00,45,18.60
2015,07,10,00,46,18.50
2015,07,10,00,47,18.50
2015,07,10,00,48,18.40
2015,07,10,00,49,18.30
2015,07,10,00,50,18.30
2015,07,10,00,51,18.20
2015,07,10,00,52,18.20
2015,07,10,00,53,18.20
2015,07,10,00,54,18.20
2015,07,10,00,55,18.20
2015,07,10,00,56,18.10
2015,07,10,00,57,18.10
2015,07,10,00,58,18.00
2015,07,10,00,59,17.90
2015,07,10,01,00,17.90
2015,07,10,01,01,17.90
2015,07,10,01,02,17.80
2015,07,10,01,03,17.80
2015,07,10,01,04,17.80
2015,07,10,01,05,17.70
2015,07,10,01,06,17.70
2015,07,10,01,07,17.70
2015,07,10,01,08,17.60
2015,07,10,01,09,17.60
2015,07,10,01,10,17.60
2015,07,10,01,11,17.60
2015,07,10,01,12,17.50
2015,07,10,01,13,17.50
2015,07,10,01,14,17.50
2015,07,10,01,15,17.50
2015,07,10,01,16,17.40
2015,07,10,01,17,17.40
2015,07,10,01,18,17.40
2015,07,10,01,19,17.40
2015,07,10,01,20,17.40
2015,07,10,01,21,17.30
2015,07,10,01,22,17.30
2015,07,10,01,23,17.30
2015,07,10,01,24,17.30
2015,07,10,01,25,17.30
2015,07,10,01,26,17.30
2015,07,10,01,27,17.30
2015,07,10,01,28,17.30
2015,07,10,01,29,17.20
2015,07,10,01,30,17.20
2015,07,10,01,31,17.20
2015,07,10,01,32,17.20
2015,07,10,01,33,17.10
2015,07,10,01,34,17.10
2015,07,10,01,35,17.10
2015,07,10,01,36,17.00
2015,07,10,01,37,17.00
2015,07,10,01,38,17.00
2015,07,10,01,39,17.00
2015,07,10,01,40,17.00
2015,07,10,01,41,17.00
2015,07,10,01,42,16.90
2015,07,10,01,43,16.90
2015,07,10,01,44,16.90
2015,07,10,01,45,16.90
2015,07,10,01,46,16.90
2015,07,10,01,47,16.90
2015,07,10,01,48,16.90
2015,07,10,01,49,16.80
2015,07,10,01,50,16.80
2015,07,10,01,51,16.80
2015,07,10,01,52,16.80
2015,07,10,01,53,16.80
2015,07,10,01,54,16.80
2015,07,10,01,55,16.70
2015,07,10,01,56,16.70
2015,07,10,01,57,16.70
2015,07,10,01,58,16.70
2015,07,10,01,59,16.70
2015,07,10,02,00,16.70
2015,07,10,02,01,16.70
2015,07,10,02,02,16.60
2015,07,10,02,03,16.60
2015,07,10,02,04,16.60
2015,07,10,02,05,16.40
2015,07,10,02,06,16.40
2015,07,10,02,07,16.40
2015,07,10,02,08,16.40
2015,07,10,02,09,16.40
2015,07,10,02,10,16.40
2015,07,10,02,11,16.30
2015,07,10,02,12,16.30
2015,07,10,02,13,16.30
2015,07,10,02,14,16.20
2015,07,10,02,15,16.20
2015,07,10,02,16,16.20
2015,07,10,02,17,16.20
2015,07,10,02,18,16.10
2015,07,10,02,19,16.10
2015,07,10,02,20,16.10
2015,07,10,02,21,16.10
2015,07,10,02,22,16.10
2015,07,10,02,23,16.10
2015,07,10,02,24,16.10
2015,07,10,02,25,16.10
2015,07,10,02,26,16.10
2015,07,10,02,27,16.10
2015,07,10,02,28,16.10
2015,07,10,02,29,16.00
2015,07,10,02,30,15.90
2015,07,10,02,31,15.90
2015,07,10,02,32,15.90
2015,07,10,02,33,15.90
2015,07,10,02,34,15.80
2015,07,10,02,35,15.80
2015,07,10,02,36,15.80
2015,07,10,02,37,15.80
2015,07,10,02,38,15.80
2015,07,10,02,39,15.80
2015,07,10,02,40,15.80
2015,07,10,02,41,15.80
2015,07,10,02,42,15.80
2015,07,10,02,43,15.80
2015,07,10,02,44,15.80
2015,07,10,02,45,15.80
2015,07,10,02,46,15.70
2015,07,10,02,47,15.70
2015,07,10,02,48,15.70
2015,07,10,02,49,15.60
2015,07,10,02,50,15.60
2015,07,10,02,51,15.60
2015,07,10,02,52,15.60
2015,07,10,02,53,15.60
2015,07,10,02,54,15.50
2015,07,10,02,55,15.50
2015,07,10,02,56,15.50
2015,07,10,02,57,15.40
2015,07,10,02,58,15.40
2015,07,10,02,59,15.40
2015,07,10,03,00,15.40
2015,07,10,03,01,15.40
2015,07,10,03,02,15.30
2015,07,10,03,03,15.30
2015,07,10,03,04,15.30
2015,07,10,03,05,15.30
2015,07,10,03,06,15.30
2015,07,10,03,07,15.30
2015,07,10,03,08,15.30
2015,07,10,03,09,15.30
2015,07,10,03,10,15.30
2015,07,10,03,11,15.30
2015,07,10,03,12,15.30
2015,07,10,03,13,15.30
2015,07,10,03,14,15.30
2015,07,10,03,15,15.30
2015,07,10,03,16,15.30
2015,07,10,03,17,15.30
2015,07,10,03,18,15.30
2015,07,10,03,19,15.30
2015,07,10,03,20,15.20
2015,07,10,03,21,15.20
2015,07,10,03,22,15.20
2015,07,10,03,23,15.20
2015,07,10,03,24,15.10
2015,07,10,03,25,15.10
2015,07,10,03,26,15.10
2015,07,10,03,27,15.10
2015,07,10,03,28,15.10
2015,07,10,03,29,15.10
2015,07,10,03,30,15.10
2015,07,10,03,31,15.10
2015,07,10,03,32,15.10
2015,07,10,03,33,15.10
2015,07,10,03,34,15.00
2015,07,10,03,35,15.00
2015,07,10,03,36,15.00
2015,07,10,03,37,15.00
2015,07,10,03,38,15.00
2015,07,10,03,39,15.00
2015,07,10,03,40,15.00
2015,07,10,03,41,15.00
2015,07,10,03,42,14.90
2015,07,10,03,43,14.90
2015,07,10,03,44,14.90
2015,07,10,03,45,14.90
2015,07,10,03,46,14.90
2015,07,10,03,47,14.90
2015,07,10,03,48,14.90
2015,07,10,03,49,14.90
2015,07,10,03,50,14.80
2015,07,10,03,51,14.80
2015,07,10,03,52,14.80
2015,07,10,03,53,14.80
2015,07,10,03,54,14.80
2015,07,10,03,55,14.80
2015,07,10,03,56,14.80
2015,07,10,03,57,14.80
2015,07,10,03,58,14.80
2015,07,10,03,59,14.80
2015,07,10,04,00,14.80
2015,07,10,04,01,14.80
2015,07,10,04,02,14.80
2015,07,10,04,03,14.80
2015,07,10,04,04,14.70
2015,07,10,04,05,14.70
2015,07,10,04,06,14.70
2015,07,10,04,07,14.70
2015,07,10,04,08,14.70
2015,07,10,04,09,14.60
2015,07,10,04,10,14.60
2015,07,10,04,11,14.60
2015,07,10,04,12,14.60
2015,07,10,04,13,14.60
2015,07,10,04,14,14.60
2015,07,10,04,15,14.60
2015,07,10,04,16,14.60
2015,07,10,04,17,14.60
2015,07,10,04,18,14.50
2015,07,10,04,19,14.50
2015,07,10,04,20,14.50
2015,07,10,04,21,14.50
2015,07,10,04,22,14.40
2015,07,10,04,23,14.40
2015,07,10,04,24,14.40
2015,07,10,04,25,14.40
2015,07,10,04,26,14.40
2015,07,10,04,27,14.40
2015,07,10,04,28,14.40
2015,07,10,04,29,14.40
2015,07,10,04,30,14.40
2015,07,10,04,31,14.40
2015,07,10,04,32,14.40
2015,07,10,04,33,14.40
2015,07,10,04,34,14.40
2015,07,10,04,35,14.40
2015,07,10,04,36,14.40
2015,07,10,04,37,14.40
2015,07,10,04,38,14.40
2015,07,10,04,39,14.40
2015,07,10,04,40,14.40
2015,07,10,04,41,14.30
2015,07,10,04,42,14.30
2015,07,10,04,43,14.30
2015,07,10,04,44,14.30
2015,07,10,04,45,14.20
2015,07,10,04,46,14.20
2015,07,10,04,47,14.20
2015,07,10,04,48,14.20
2015,07,10,04,49,14.20
2015,07,10,04,50,14.20
2015,07,10,04,51,14.20
2015,07,10,04,52,14.20
2015,07,10,04,53,14.20
2015,07,10,04,54,14.20
2015,07,10,04,55,14.10
2015,07,10,04,56,14.10
2015,07,10,04,57,14.10
2015,07,10,04,58,14.10
2015,07,10,04,59,14.10
2015,07,10,05,00,14.10
2015,07,10,05,01,14.10
2015,07,10,05,02,14.00
2015,07,10,05,03,14.00
2015,07,10,05,04,14.00
2015,07,10,05,05,14.00
2015,07,10,05,06,14.00
2015,07,10,05,07,14.00
2015,07,10,05,08,14.00
2015,07,10,05,09,14.00
2015,07,10,05,10,14.00
2015,07,10,05,11,14.00
2015,07,10,05,12,14.00
2015,07,10,05,13,14.00
2015,07,10,05,14,14.00
2015,07,10,05,15,14.00
2015,07,10,05,16,13.90
2015,07,10,05,17,13.90
2015,07,10,05,18,13.90
2015,07,10,05,19,13.90
2015,07,10,05,20,14.00
2015,07,10,05,21,14.00
2015,07,10,05,22,14.00
2015,07,10,05,23,14.00
2015,07,10,05,24,14.00
2015,07,10,05,25,13.90
2015,07,10,05,26,13.90
2015,07,10,05,27,13.90
2015,07,10,05,28,13.80
2015,07,10,05,29,13.80
2015,07,10,05,30,13.80
2015,07,10,05,31,13.80
2015,07,10,05,32,13.70
2015,07,10,05,33,13.70
2015,07,10,05,34,13.70
2015,07,10,05,35,13.70
2015,07,10,05,36,13.70
2015,07,10,05,37,13.70
2015,07,10,05,38,13.70
2015,07,10,05,39,13.70
2015,07,10,05,40,13.70
2015,07,10,05,41,13.70
2015,07,10,05,42,13.70
2015,07,10,05,43,13.70
2015,07,10,05,44,13.70
2015,07,10,05,45,13.70
2015,07,10,05,46,13.70
2015,07,10,05,47,13.70
2015,07,10,05,48,13.70
2015,07,10,05,49,13.70
2015,07,10,05,50,13.70
2015,07,10,05,51,13.70
2015,07,10,05,52,13.70
2015,07,10,05,53,13.70
2015,07,10,05,54,13.70
2015,07,10,05,55,13.80
2015,07,10,05,56,13.80
2015,07,10,05,57,13.80
2015,07,10,05,58,13.80
2015,07,10,05,59,13.80
2015,07,10,06,00,13.80
2015,07,10,06,01,13.80
2015,07,10,06,02,13.80
2015,07,10,06,03,13.80
2015,07,10,06,04,13.70
2015,07,10,06,05,13.70
2015,07,10,06,06,13.70
2015,07,10,06,07,13.70
2015,07,10,06,08,13.70
2015,07,10,06,09,13.80
2015,07,10,06,10,13.80
2015,07,10,06,11,13.80
2015,07,10,06,12,13.80
2015,07,10,06,13,13.80
2015,07,10,06,14,13.90
2015,07,10,06,15,13.90
2015,07,10,06,16,13.90
2015,07,10,06,17,13.90
2015,07,10,06,18,14.00
2015,07,10,06,19,14.00
2015,07,10,06,20,14.00
2015,07,10,06,21,14.00
2015,07,10,06,22,14.10
2015,07,10,06,23,14.10
2015,07,10,06,24,14.10
2015,07,10,06,25,14.20
2015,07,10,06,26,14.20
2015,07,10,06,27,14.30
2015,07,10,06,28,14.40
2015,07,10,06,29,14.40
2015,07,10,06,30,14.50
2015,07,10,06,31,14.50
2015,07,10,06,32,14.60
2015,07,10,06,33,14.70
2015,07,10,06,34,14.80
2015,07,10,06,35,14.80
2015,07,10,06,36,14.90
2015,07,10,06,37,15.00
2015,07,10,06,38,15.10
2015,07,10,06,39,15.10
2015,07,10,06,40,15.20
2015,07,10,06,41,15.30
2015,07,10,06,42,15.30
2015,07,10,06,43,15.40
2015,07,10,06,44,15.50
2015,07,10,06,45,15.50
2015,07,10,06,46,15.60
2015,07,10,06,47,15.60
2015,07,10,06,48,15.70
2015,07,10,06,49,15.80
2015,07,10,06,50,15.80
2015,07,10,06,51,15.90
2015,07,10,06,52,16.00
2015,07,10,06,53,16.10
2015,07,10,06,54,16.10
2015,07,10,06,55,16.20
2015,07,10,06,56,16.20
2015,07,10,06,57,16.30
2015,07,10,06,58,16.30
2015,07,10,06,59,16.40
2015,07,10,07,00,16.40
2015,07,10,07,01,16.40
2015,07,10,07,02,16.50
2015,07,10,07,03,16.60
2015,07,10,07,04,16.70
2015,07,10,07,05,16.70
2015,07,10,07,06,16.70
2015,07,10,07,07,16.70
2015,07,10,07,08,16.70
2015,07,10,07,09,16.70
2015,07,10,07,10,16.70
2015,07,10,07,11,16.80
2015,07,10,07,12,16.80
2015,07,10,07,13,16.80
2015,07,10,07,14,16.90
2015,07,10,07,15,16.80
2015,07,10,07,16,16.90
2015,07,10,07,17,16.90
2015,07,10,07,18,16.90
2015,07,10,07,19,16.90
2015,07,10,07,20,16.90
2015,07,10,07,21,16.90
2015,07,10,07,22,17.00
2015,07,10,07,23,17.00
2015,07,10,07,24,17.00
2015,07,10,07,25,17.00
2015,07,10,07,26,17.10
2015,07,10,07,27,17.10
2015,07,10,07,28,17.20
2015,07,10,07,29,17.20
2015,07,10,07,30,17.20
2015,07,10,07,31,17.20
2015,07,10,07,32,17.30
2015,07,10,07,33,17.30
2015,07,10,07,34,17.30
2015,07,10,07,35,17.30
2015,07,10,07,36,17.30
2015,07,10,07,37,17.30
2015,07,10,07,38,17.40
2015,07,10,07,39,17.50
2015,07,10,07,40,17.50
2015,07,10,07,41,17.50
2015,07,10,07,42,17.60
2015,07,10,07,43,17.70
2015,07,10,07,44,17.80
2015,07,10,07,45,17.90
2015,07,10,07,46,17.90
2015,07,10,07,47,18.00
2015,07,10,07,48,18.10
2015,07,10,07,49,18.10
2015,07,10,07,50,18.10
2015,07,10,07,51,18.20
2015,07,10,07,52,18.20
2015,07,10,07,53,18.20
2015,07,10,07,54,18.20
2015,07,10,07,55,18.20
2015,07,10,07,56,18.20
2015,07,10,07,57,18.20
2015,07,10,07,58,18.20
2015,07,10,07,59,18.30
2015,07,10,08,00,18.30
2015,07,10,08,01,18.40
2015,07,10,08,02,18.40
2015,07,10,08,03,18.40
2015,07,10,08,04,18.50
2015,07,10,08,05,18.60
2015,07,10,08,06,18.60
2015,07,10,08,07,18.60
2015,07,10,08,08,18.70
2015,07,10,08,09,18.80
2015,07,10,08,10,18.90
2015,07,10,08,11,19.00
2015,07,10,08,12,19.10
2015,07,10,08,13,19.10
2015,07,10,08,14,19.20
2015,07,10,08,15,19.20
2015,07,10,08,16,19.10
2015,07,10,08,17,19.10
2015,07,10,08,18,19.10
2015,07,10,08,19,19.00
2015,07,10,08,20,18.90
2015,07,10,08,21,18.90
2015,07,10,08,22,18.90
2015,07,10,08,23,18.90
2015,07,10,08,24,18.90
2015,07,10,08,25,18.90
2015,07,10,08,26,18.90
2015,07,10,08,27,19.00
2015,07,10,08,28,19.10
2015,07,10,08,29,19.20
2015,07,10,08,30,19.40
2015,07,10,08,31,19.50
2015,07,10,08,32,19.50
2015,07,10,08,33,19.50
2015,07,10,08,34,19.60
2015,07,10,08,35,19.70
2015,07,10,08,36,19.70
2015,07,10,08,37,19.60
2015,07,10,08,38,19.60
2015,07,10,08,39,19.60
2015,07,10,08,40,19.70
2015,07,10,08,41,19.70
2015,07,10,08,42,19.80
2015,07,10,08,43,19.90
2015,07,10,08,44,20.00
2015,07,10,08,45,20.10
2015,07,10,08,46,20.10
2015,07,10,08,47,20.10
2015,07,10,08,48,20.10
2015,07,10,08,49,20.00
2015,07,10,08,50,20.00
2015,07,10,08,51,20.00
2015,07,10,08,52,19.90
2015,07,10,08,53,19.80
2015,07,10,08,54,19.70
2015,07,10,08,55,19.80
2015,07,10,08,56,19.80
2015,07,10,08,57,19.80
2015,07,10,08,58,19.80
2015,07,10,08,59,19.80
2015,07,10,09,00,19.70
2015,07,10,09,01,19.70
2015,07,10,09,02,19.60
2015,07,10,09,03,19.70
2015,07,10,09,04,19.70
2015,07,10,09,05,19.80
2015,07,10,09,06,19.90
2015,07,10,09,07,20.00
2015,07,10,09,08,20.10
2015,07,10,09,09,20.10
2015,07,10,09,10,20.10
2015,07,10,09,11,19.90
2015,07,10,09,12,19.90
2015,07,10,09,13,19.90
2015,07,10,09,14,19.90
2015,07,10,09,15,19.90
2015,07,10,09,16,19.90
2015,07,10,09,17,19.80
2015,07,10,09,18,19.80
2015,07,10,09,19,19.70
2015,07,10,09,20,19.70
2015,07,10,09,21,19.70
2015,07,10,09,22,19.80
2015,07,10,09,23,19.80
2015,07,10,09,24,19.90
2015,07,10,09,25,19.90
2015,07,10,09,26,19.90
2015,07,10,09,27,19.90
2015,07,10,09,28,20.10
2015,07,10,09,29,20.00
2015,07,10,09,30,19.90
2015,07,10,09,31,19.60
2015,07,10,09,32,19.60
2015,07,10,09,33,19.50
2015,07,10,09,34,19.50
2015,07,10,09,35,19.50
2015,07,10,09,36,19.60
2015,07,10,09,37,19.60
2015,07,10,09,38,19.50
2015,07,10,09,39,19.40
2015,07,10,09,40,19.40
2015,07,10,09,41,19.40
2015,07,10,09,42,19.30
2015,07,10,09,43,19.30
2015,07,10,09,44,19.20
2015,07,10,09,45,19.10
2015,07,10,09,46,19.10
2015,07,10,09,47,19.10
2015,07,10,09,48,19.00
2015,07,10,09,49,18.90
2015,07,10,09,50,18.90
2015,07,10,09,51,18.90
2015,07,10,09,52,19.10
2015,07,10,09,53,19.10
2015,07,10,09,54,19.10
2015,07,10,09,55,19.10
2015,07,10,09,56,19.10
2015,07,10,09,57,19.10
2015,07,10,09,58,19.10
2015,07,10,09,59,19.20
2015,07,10,10,00,19.20
2015,07,10,10,01,19.30
2015,07,10,10,02,19.30
2015,07,10,10,03,19.30
2015,07,10,10,04,19.40
2015,07,10,10,05,19.40
2015,07,10,10,06,19.50
2015,07,10,10,07,19.60
2015,07,10,10,08,19.70
2015,07,10,10,09,19.70
2015,07,10,10,10,19.70
2015,07,10,10,11,19.70
2015,07,10,10,12,19.70
2015,07,10,10,13,19.70
2015,07,10,10,14,19.70
2015,07,10,10,15,19.80
2015,07,10,10,16,19.80
2015,07,10,10,17,19.80
2015,07,10,10,18,19.90
2015,07,10,10,19,19.90
2015,07,10,10,20,20.00
2015,07,10,10,21,20.10
2015,07,10,10,22,20.20
2015,07,10,10,23,20.10
2015,07,10,10,24,20.20
2015,07,10,10,25,20.20
2015,07,10,10,26,20.40
2015,07,10,10,27,20.40
2015,07,10,10,28,20.50
2015,07,10,10,29,20.60
2015,07,10,10,30,20.70
2015,07,10,10,31,20.70
2015,07,10,10,32,20.80
2015,07,10,10,33,21.00
2015,07,10,10,34,21.10
2015,07,10,10,35,21.10
2015,07,10,10,36,21.10
2015,07,10,10,37,21.10
2015,07,10,10,38,21.10
2015,07,10,10,39,21.10
2015,07,10,10,40,21.10
2015,07,10,10,41,21.20
2015,07,10,10,42,21.30
2015,07,10,10,43,21.30
2015,07,10,10,44,21.30
2015,07,10,10,45,21.30
2015,07,10,10,46,21.30
2015,07,10,10,47,21.30
2015,07,10,10,48,21.40
2015,07,10,10,49,21.50
2015,07,10,10,50,21.60
2015,07,10,10,51,21.60
2015,07,10,10,52,21.70
2015,07,10,10,53,21.80
2015,07,10,10,54,21.90
2015,07,10,10,55,22.00
2015,07,10,10,56,22.00
2015,07,10,10,57,22.00
2015,07,10,10,58,22.00
2015,07,10,10,59,21.90
2015,07,10,11,00,21.80
2015,07,10,11,01,21.90
2015,07,10,11,02,21.90
2015,07,10,11,03,21.90
2015,07,10,11,04,22.00
2015,07,10,11,05,22.20
2015,07,10,11,06,22.20
2015,07,10,11,07,22.20
2015,07,10,11,08,22.10
2015,07,10,11,09,22.20
2015,07,10,11,10,22.20
2015,07,10,11,11,22.20
2015,07,10,11,12,22.10
2015,07,10,11,13,22.00
2015,07,10,11,14,21.80
2015,07,10,11,15,21.80
2015,07,10,11,16,21.70
2015,07,10,11,17,21.60
2015,07,10,11,18,21.60
2015,07,10,11,19,21.60
2015,07,10,11,20,21.60
2015,07,10,11,21,21.60
2015,07,10,11,22,21.60
2015,07,10,11,23,21.60
2015,07,10,11,24,21.60
2015,07,10,11,25,21.70
2015,07,10,11,26,21.90
2015,07,10,11,27,21.90
2015,07,10,11,28,22.00
2015,07,10,11,29,22.20
2015,07,10,11,30,22.20
2015,07,10,11,31,22.10
2015,07,10,11,32,22.10
2015,07,10,11,33,22.20
2015,07,10,11,34,22.20
2015,07,10,11,35,22.30
2015,07,10,11,36,22.30
2015,07,10,11,37,22.30
2015,07,10,11,38,22.40
2015,07,10,11,39,22.30
2015,07,10,11,40,22.30
2015,07,10,11,41,22.20
2015,07,10,11,42,22.10
2015,07,10,11,43,22.00
2015,07,10,11,44,21.80
2015,07,10,11,45,21.60
2015,07,10,11,46,21.60
2015,07,10,11,47,21.60
2015,07,10,11,48,21.70
2015,07,10,11,49,21.80
2015,07,10,11,50,22.00
2015,07,10,11,51,22.10
2015,07,10,11,52,22.20
2015,07,10,11,53,22.30
2015,07,10,11,54,22.30
2015,07,10,11,55,22.20
2015,07,10,11,56,22.00
2015,07,10,11,57,22.00
2015,07,10,11,58,22.00
2015,07,10,11,59,22.00
2015,07,10,12,00,22.10
2015,07,10,12,01,22.20
2015,07,10,12,02,22.30
2015,07,10,12,03,22.30
2015,07,10,12,04,22.30
2015,07,10,12,05,22.40
2015,07,10,12,06,22.40
2015,07,10,12,07,22.50
2015,07,10,12,08,22.50
2015,07,10,12,09,22.50
2015,07,10,12,10,22.50
2015,07,10,12,11,22.40
2015,07,10,12,12,22.40
2015,07,10,12,13,22.40
2015,07,10,12,14,22.30
2015,07,10,12,15,22.30
2015,07,10,12,16,22.30
2015,07,10,12,17,22.30
2015,07,10,12,18,22.40
2015,07,10,12,19,22.50
2015,07,10,12,20,22.50
2015,07,10,12,21,22.40
2015,07,10,12,22,22.40
2015,07,10,12,23,22.30
2015,07,10,12,24,22.30
2015,07,10,12,25,22.30
2015,07,10,12,26,22.40
2015,07,10,12,27,22.40
2015,07,10,12,28,22.40
2015,07,10,12,29,22.40
2015,07,10,12,30,22.50
2015,07,10,12,31,22.60
2015,07,10,12,32,22.60
2015,07,10,12,33,22.70
2015,07,10,12,34,22.70
2015,07,10,12,35,22.60
2015,07,10,12,36,22.50
2015,07,10,12,37,22.40
2015,07,10,12,38,22.40
2015,07,10,12,39,22.30
2015,07,10,12,40,22.40
2015,07,10,12,41,22.40
2015,07,10,12,42,22.50
2015,07,10,12,43,22.60
2015,07,10,12,44,22.60
2015,07,10,12,45,22.60
2015,07,10,12,46,22.60
2015,07,10,12,47,22.70
2015,07,10,12,48,22.70
2015,07,10,12,49,22.80
2015,07,10,12,50,22.80
2015,07,10,12,51,22.80
2015,07,10,12,52,22.80
2015,07,10,12,53,22.90
2015,07,10,12,54,23.00
2015,07,10,12,55,23.00
2015,07,10,12,56,22.90
2015,07,10,12,57,22.90
2015,07,10,12,58,22.90
2015,07,10,12,59,22.90
2015,07,10,13,00,22.70
2015,07,10,13,01,22.80
2015,07,10,13,02,22.80
2015,07,10,13,03,22.90
2015,07,10,13,04,22.90
2015,07,10,13,05,23.10
2015,07,10,13,06,23.10
2015,07,10,13,07,23.20
2015,07,10,13,08,23.20
2015,07,10,13,09,23.30
2015,07,10,13,10,23.30
2015,07,10,13,11,23.30
2015,07,10,13,12,23.20
2015,07,10,13,13,23.10
2015,07,10,13,14,23.00
2015,07,10,13,15,22.90
2015,07,10,13,16,22.90
2015,07,10,13,17,22.90
2015,07,10,13,18,22.70
2015,07,10,13,19,22.60
2015,07,10,13,20,22.50
2015,07,10,13,21,22.50
2015,07,10,13,22,22.50
2015,07,10,13,23,22.50
2015,07,10,13,24,22.60
2015,07,10,13,25,22.80
2015,07,10,13,26,22.90
2015,07,10,13,27,22.90
2015,07,10,13,28,22.90
2015,07,10,13,29,22.90
2015,07,10,13,30,22.90
2015,07,10,13,31,22.90
2015,07,10,13,32,22.90
2015,07,10,13,33,22.90
2015,07,10,13,34,23.00
2015,07,10,13,35,23.00
2015,07,10,13,36,23.10
2015,07,10,13,37,23.10
2015,07,10,13,38,23.00
2015,07,10,13,39,23.10
2015,07,10,13,40,23.10
2015,07,10,13,41,23.10
2015,07,10,13,42,22.90
2015,07,10,13,43,23.00
2015,07,10,13,44,23.20
2015,07,10,13,45,23.20
2015,07,10,13,46,23.20
2015,07,10,13,47,23.20
2015,07,10,13,48,23.20
2015,07,10,13,49,23.30
2015,07,10,13,50,23.30
2015,07,10,13,51,23.30
2015,07,10,13,52,23.30
2015,07,10,13,53,23.30
2015,07,10,13,54,23.30
2015,07,10,13,55,23.40
2015,07,10,13,56,23.60
2015,07,10,13,57,23.70
2015,07,10,13,58,23.70
2015,07,10,13,59,23.70
2015,07,10,14,00,23.80
2015,07,10,14,01,23.90
2015,07,10,14,02,23.90
2015,07,10,14,03,24.00
2015,07,10,14,04,24.00
2015,07,10,14,05,23.90
2015,07,10,14,06,23.90
2015,07,10,14,07,23.90
2015,07,10,14,08,23.90
2015,07,10,14,09,23.90
2015,07,10,14,10,23.90
2015,07,10,14,11,23.80
2015,07,10,14,12,23.70
2015,07,10,14,13,23.70
2015,07,10,14,14,23.80
2015,07,10,14,15,23.90
2015,07,10,14,16,23.90
2015,07,10,14,17,23.90
2015,07,10,14,18,24.00
2015,07,10,14,19,24.10
2015,07,10,14,20,24.10
2015,07,10,14,21,24.10
2015,07,10,14,22,24.10
2015,07,10,14,23,23.80
2015,07,10,14,24,23.60
2015,07,10,14,25,23.40
2015,07,10,14,26,23.20
2015,07,10,14,27,23.10
2015,07,10,14,28,23.20
2015,07,10,14,29,23.20
2015,07,10,14,30,23.20
2015,07,10,14,31,23.20
2015,07,10,14,32,23.30
2015,07,10,14,33,23.30
2015,07,10,14,34,23.30
2015,07,10,14,35,23.30
2015,07,10,14,36,23.30
2015,07,10,14,37,23.30
2015,07,10,14,38,23.30
2015,07,10,14,39,23.30
2015,07,10,14,40,23.30
2015,07,10,14,41,23.30
2015,07,10,14,42,23.30
2015,07,10,14,43,23.30
2015,07,10,14,44,23.30
2015,07,10,14,45,23.30
2015,07,10,14,46,23.40
2015,07,10,14,47,23.30
2015,07,10,14,48,23.40
2015,07,10,14,49,23.40
2015,07,10,14,50,23.40
2015,07,10,14,51,23.40
2015,07,10,14,52,23.50
2015,07,10,14,53,23.40
2015,07,10,14,54,23.40
2015,07,10,14,55,23.60
2015,07,10,14,56,23.70
2015,07,10,14,57,23.80
2015,07,10,14,58,23.90
2015,07,10,14,59,23.80
2015,07,10,15,00,23.70
2015,07,10,15,01,23.70
2015,07,10,15,02,23.70
2015,07,10,15,03,23.70
2015,07,10,15,04,23.70
2015,07,10,15,05,23.70
2015,07,10,15,06,23.80
2015,07,10,15,07,23.90
2015,07,10,15,08,24.10
2015,07,10,15,09,24.20
2015,07,10,15,10,24.20
2015,07,10,15,11,24.10
2015,07,10,15,12,24.10
2015,07,10,15,13,24.00
2015,07,10,15,14,23.90
2015,07,10,15,15,23.90
2015,07,10,15,16,23.90
2015,07,10,15,17,24.00
2015,07,10,15,18,24.10
2015,07,10,15,19,24.00
2015,07,10,15,20,23.80
2015,07,10,15,21,23.50
2015,07,10,15,22,23.40
2015,07,10,15,23,23.50
2015,07,10,15,24,23.60
2015,07,10,15,25,23.70
2015,07,10,15,26,23.80
2015,07,10,15,27,23.90
2015,07,10,15,28,24.00
2015,07,10,15,29,24.10
2015,07,10,15,30,24.20
2015,07,10,15,31,24.30
2015,07,10,15,32,24.40
2015,07,10,15,33,24.40
2015,07,10,15,34,24.50
2015,07,10,15,35,24.40
2015,07,10,15,36,24.30
2015,07,10,15,37,24.20
2015,07,10,15,38,24.20
2015,07,10,15,39,24.20
2015,07,10,15,40,24.10
2015,07,10,15,41,24.10
2015,07,10,15,42,24.10
2015,07,10,15,43,24.10
2015,07,10,15,44,24.10
2015,07,10,15,45,24.20
2015,07,10,15,46,24.30
2015,07,10,15,47,24.30
2015,07,10,15,48,24.40
2015,07,10,15,49,24.40
2015,07,10,15,50,24.20
2015,07,10,15,51,24.10
2015,07,10,15,52,24.00
2015,07,10,15,53,23.80
2015,07,10,15,54,23.70
2015,07,10,15,55,23.70
2015,07,10,15,56,23.60
2015,07,10,15,57,23.60
2015,07,10,15,58,23.70
2015,07,10,15,59,23.50
2015,07,10,16,00,23.40
2015,07,10,16,01,23.40
2015,07,10,16,02,23.50
2015,07,10,16,03,23.60
2015,07,10,16,04,23.60
2015,07,10,16,05,23.70
2015,07,10,16,06,23.70
2015,07,10,16,07,23.70
2015,07,10,16,08,23.70
2015,07,10,16,09,23.70
2015,07,10,16,10,23.70
2015,07,10,16,11,23.60
2015,07,10,16,12,23.40
2015,07,10,16,13,23.30
2015,07,10,16,14,23.30
2015,07,10,16,15,23.30
2015,07,10,16,16,23.30
2015,07,10,16,17,23.30
2015,07,10,16,18,23.40
2015,07,10,16,19,23.60
2015,07,10,16,20,23.70
2015,07,10,16,21,23.70
2015,07,10,16,22,23.70
2015,07,10,16,23,23.70
2015,07,10,16,24,23.70
2015,07,10,16,25,23.70
2015,07,10,16,26,23.70
2015,07,10,16,27,23.60
2015,07,10,16,28,23.50
2015,07,10,16,29,23.30
2015,07,10,16,30,23.40
2015,07,10,16,31,23.40
2015,07,10,16,32,23.40
2015,07,10,16,33,23.30
2015,07,10,16,34,23.30
2015,07,10,16,35,23.30
2015,07,10,16,36,23.30
2015,07,10,16,37,23.30
2015,07,10,16,38,23.50
2015,07,10,16,39,23.60
2015,07,10,16,40,23.70
2015,07,10,16,41,23.80
2015,07,10,16,42,23.70
2015,07,10,16,43,23.70
2015,07,10,16,44,23.60
2015,07,10,16,45,23.60
2015,07,10,16,46,23.50
2015,07,10,16,47,23.40
2015,07,10,16,48,23.30
2015,07,10,16,49,23.30
2015,07,10,16,50,23.30
2015,07,10,16,51,23.30
2015,07,10,16,52,23.30
2015,07,10,16,53,23.30
2015,07,10,16,54,23.40
2015,07,10,16,55,23.50
2015,07,10,16,56,23.60
2015,07,10,16,57,23.70
2015,07,10,16,58,23.70
2015,07,10,16,59,23.60
2015,07,10,17,00,23.60
2015,07,10,17,01,23.60
2015,07,10,17,02,23.60
2015,07,10,17,03,23.50
2015,07,10,17,04,23.40
2015,07,10,17,05,23.30
2015,07,10,17,06,23.30
2015,07,10,17,07,23.30
2015,07,10,17,08,23.30
2015,07,10,17,09,23.20
2015,07,10,17,10,23.10
2015,07,10,17,11,23.00
2015,07,10,17,12,22.90
2015,07,10,17,13,22.90
2015,07,10,17,14,22.90
2015,07,10,17,15,22.90
2015,07,10,17,16,23.00
2015,07,10,17,17,23.10
2015,07,10,17,18,23.10
2015,07,10,17,19,23.10